Wind_Speed
5 5 5 5 5 5 5 5 5 5 5 5 5 5 5 5 5 5 5 5 4 4 4 4 3 3 3 4 4 4 5 5 5 6 6 6 7 8 8 8 8 8 8
4 4 4 5 4 4 4 4 4 4 4 4 4 4 4 4 4 4 5 4 4 4 4 4 4 4 4 4 5 5 6 6 7 7 7 8 8 8 9 9 9 9 10
3 3 4 4 4 4 4 4 3 3 3 3 3 3 3 3 4 4 4 4 4 4 4 4 5 5 4 5 6 6 6 7 8 8 8 9 9 10 10 10 11 11 11
2 2 4 4 4 4 4 4 4 3 3 3 3 3 3 3 4 5 5 5 5 5 6 5 6 6 7 7 7 7 8 8 9 9 10 10 11 11 11 11 11 12 12
2 3 4 4 4 4 4 4 4 4 4 5 4 4 4 5 5 6 6 6 6 6 6 7 7 8 8 8 9 9 10 10 11 11 12 12 12 13 13 13 13 13 14
2 3 4 4 4 4 5 5 5 5 6 6 6 6 6 7 7 7 8 8 8 8 8 9 9 9 10 10 11 11 12 12 12 13 13 14 14 14 14 15 15 15 15
3 3 4 5 5 6 6 6 7 7 7 7 7 8 8 9 9 9 10 10 10 10 10 11 11 11 12 12 13 13 14 15 15 15 16 16 16 16 16 15 16 17 17
4 4 5 6 6 6 7 7 8 8 9 9 9 10 11 11 11 12 12 11 11 12 12 13 13 13 14 14 14 15 16 16 16 17 17 18 18 18 18 18 18 18 19
4 4 5 6 6 7 7 8 9 9 10 10 11 11 12 12 13 13 14 13 13 14 14 14 15 16 16 16 16 17 17 18 19 19 19 20 20 20 20 20 21 21 21
5 5 6 7 7 8 8 9 10 10 11 12 13 13 13 14 14 14 15 15 15 15 16 17 17 18 18 18 18 18 19 19 20 20 21 21 21 21 21 22 22 22 23
6 7 8 8 8 9 9 10 11 12 13 13 14 14 14 15 16 16 16 17 17 18 18 18 19 19 19 19 20 20 21 21 21 21 22 22 22 22 23 23 22 23 23
7 8 9 9 9 10 11 12 13 14 14 14 15 15 16 16 18 18 18 18 18 18 18 18 19 19 20 20 21 22 22 22 23 22 23 23 23 23 24 24 24 24 24
7 8 9 10 10 11 12 13 14 15 15 15 16 16 17 17 18 19 19 19 19 20 20 20 20 20 21 21 22 22 22 23 23 23 23 24 24 24 25 25 25 25 25
8 9 10 10 11 12 13 14 15 15 16 16 17 18 18 19 19 19 20 20 20 21 22 22 22 23 22 22 22 22 23 23 23 24 24 25 26 25 25 26 26 26 26
9 9 10 11 12 12 13 14 15 15 16 17 18 19 19 19 20 21 21 21 22 22 23 24 24 24 23 24 24 24 24 24 25 26 26 26 27 27 27 27 27 27 28
10 10 11 11 12 12 13 13 15 16 16 17 17 18 19 19 20 21 22 22 23 24 24 24 23 24 24 24 24 25 25 25 26 26 26 26 27 28 28 29 29 29 29
12 12 12 13 14 14 14 15 15 16 16 17 18 18 18 19 19 20 21 21 23 23 24 24 23 24 24 24 25 25 25 26 26 27 27 27 28 29 29 30 30 30 30
14 14 13 14 14 15 15 15 16 17 17 17 18 19 19 19 20 20 21 22 22 23 23 24 24 25 25 26 26 27 26 27 28 28 28 28 29 30 30 31 31 31 32
15 15 15 14 15 15 16 16 16 17 18 18 18 18 19 19 20 21 22 22 23 23 23 24 25 26 27 28 28 28 28 28 29 29 30 30 31 31 31 31 31 32 33
16 15 15 15 15 15 16 17 17 18 18 18 19 19 20 21 21 22 23 23 23 23 24 25 26 27 28 29 30 29 30 30 31 31 32 32 32 32 32 32 33 33 34
17 17 16 16 16 17 17 17 18 18 19 20 20 20 20 21 22 22 23 23 23 24 25 26 27 28 29 30 31 31 31 32 32 32 33 33 34 34 33 34 34 34 35
18 18 19 19 19 19 19 18 19 19 19 20 21 21 21 22 22 23 23 24 24 25 26 27 28 29 30 30 30 30 31 32 32 33 34 34 35 35 35 35 35 35 36
20 20 20 20 20 20 20 20 20 20 21 21 21 22 22 23 23 23 24 25 25 26 26 27 28 29 30 30 31 31 32 32 33 33 34 34 35 35 36 36 36 35 36
21 22 22 21 21 20 20 20 20 21 21 22 23 23 23 24 24 24 25 26 26 26 26 27 28 29 30 30 31 31 32 32 33 33 34 34 34 34 35 36 36 36 36
23 23 22 22 22 21 21 21 22 22 22 23 24 24 24 24 25 25 26 26 27 28 28 28 28 29 30 30 31 31 32 33 33 33 34 34 35 35 35 35 35 36 36
24 23 23 23 23 22 22 23 23 23 24 24 24 25 24 25 25 26 25 25 26 27 28 28 29 29 29 30 30 31 32 33 33 33 34 34 35 35 35 35 35 35 35
Wind_Direction
133 138 142 138 137 137 133 125 125 129 131 139 148 153 158 161 164 168 169 173 179 187 196 196 192 206 227 233 236 242 246 251 256 262 266 268 270 271 273 277 274 273 272
138 145 151 150 145 143 144 138 133 141 144 142 145 151 157 164 176 183 189 196 205 206 204 210 221 237 250 252 252 255 261 262 263 267 273 273 271 272 276 275 274 274 271
149 153 157 156 153 153 155 157 157 164 166 162 161 162 168 179 193 196 208 215 218 225 228 231 239 250 258 266 268 267 267 267 269 273 276 280 279 275 276 276 276 274 272
168 166 173 174 171 173 177 180 190 197 204 207 207 207 208 211 216 222 231 236 239 246 248 248 253 258 264 273 274 272 271 272 275 277 279 282 281 279 277 278 277 275 275
209 207 198 197 197 203 206 207 211 219 225 229 232 232 234 239 236 234 237 242 248 254 254 255 257 258 264 271 272 271 272 275 278 279 281 282 284 283 281 279 277 276 275
225 224 220 220 221 222 227 226 227 233 237 236 239 242 247 250 249 246 247 249 253 257 259 259 262 263 268 270 271 272 273 273 277 281 283 284 284 283 283 281 280 276 276
247 247 241 240 241 239 240 239 239 243 246 244 245 250 255 257 255 254 253 254 257 260 261 262 264 267 271 272 274 275 275 277 277 279 281 283 283 282 282 282 283 281 277
257 260 256 248 249 247 247 247 248 249 248 249 252 255 259 258 258 254 254 257 261 263 263 264 265 268 270 273 274 276 276 277 277 277 280 283 283 282 282 282 282 283 281
267 270 270 267 266 260 261 260 259 259 256 256 258 260 260 259 262 257 255 257 261 266 267 267 268 270 271 272 273 274 275 275 275 275 278 282 282 281 280 281 282 282 283
275 274 275 275 274 270 269 271 269 270 266 262 261 260 259 261 264 264 262 261 264 266 268 270 270 271 273 273 274 276 277 278 276 276 278 280 282 281 280 282 281 282 282
279 276 275 277 275 273 273 275 274 275 273 269 266 266 265 264 263 262 263 264 266 269 270 270 270 270 273 274 275 276 278 279 278 279 279 280 280 279 281 281 282 284 285
282 282 280 279 277 275 274 277 278 279 279 275 272 269 268 267 265 264 264 266 268 270 271 271 270 272 274 275 275 276 277 278 278 278 280 280 281 281 282 281 283 284 285
290 285 282 281 280 278 277 277 279 279 279 277 274 271 269 271 271 269 267 266 268 270 270 271 271 273 274 275 276 276 278 279 279 280 280 281 282 283 283 283 283 284 284
297 292 288 286 285 284 283 281 280 280 281 280 276 274 272 272 271 270 268 267 269 271 272 272 273 274 275 276 276 279 279 280 281 281 281 281 282 282 282 282 283 283 283
309 305 297 294 292 291 289 287 285 283 283 283 282 278 276 275 274 273 272 271 271 272 274 274 275 277 277 276 277 279 280 281 281 280 281 282 282 282 282 283 282 283 283
320 312 305 301 297 296 293 291 290 286 284 283 280 280 280 277 276 275 274 274 274 274 273 273 276 277 278 279 279 279 278 279 281 281 281 282 282 283 283 283 283 282 281
320 311 305 300 299 299 296 293 291 291 290 288 283 282 283 283 281 278 277 276 276 277 278 277 278 279 280 280 280 280 281 282 283 283 282 281 281 282 282 282 283 282 282
321 315 306 300 298 297 297 295 294 292 295 293 290 288 285 286 283 282 281 279 279 279 279 279 279 280 281 281 281 280 282 283 285 284 283 283 282 282 282 282 282 282 282
321 315 309 302 299 299 299 296 295 295 296 296 293 291 289 288 288 286 284 283 281 282 282 281 280 280 282 283 283 283 283 283 285 284 283 284 284 284 283 283 284 283 283
322 318 315 308 303 301 300 298 295 294 295 295 292 291 292 290 290 289 287 285 284 283 283 282 282 282 283 283 283 284 283 284 285 285 285 285 285 286 286 285 285 285 285
321 319 314 308 304 301 300 298 296 295 295 295 293 291 291 289 290 289 287 285 284 284 285 286 285 284 283 283 283 284 284 285 286 286 286 285 285 285 286 287 287 287 287
317 317 315 310 305 301 301 300 297 295 295 295 295 293 292 292 289 289 289 287 287 287 287 288 288 286 285 285 285 286 286 287 288 288 287 285 286 287 288 287 287 287 286
316 316 314 312 306 302 301 300 300 300 298 298 298 299 297 292 290 289 290 290 290 290 290 289 289 288 287 287 287 288 289 289 289 289 289 289 288 287 287 286 286 286 286
315 314 311 309 306 303 302 301 301 302 302 303 302 300 300 298 295 293 292 292 291 292 291 291 291 291 290 290 289 290 291 292 292 292 292 292 290 290 288 287 286 286 288
313 312 310 307 306 303 301 300 301 302 302 302 302 301 299 297 296 294 293 293 292 292 291 290 290 290 291 291 291 291 292 293 293 293 293 292 291 290 289 289 288 287 287
310 310 309 308 306 304 302 301 301 301 301 300 300 300 300 298 297 297 295 295 295 294 293 293 293 292 293 293 293 294 293 293 294 294 293 292 291 291 290 290 289 289 289
Height
5891 5891 5891 5891 5892 5892 5892 5893 5893 5893 5894 5894 5895 5895 5895 5896 5896 5897 5897 5898 5899 5899 5899 5900 5900 5901 5901 5901 5901 5901 5902 5902 5902 5902 5901 5901 5901 5901 5900 5900 5900 5900 5900
5891 5891 5892 5892 5892 5893 5893 5893 5894 5894 5895 5895 5895 5895 5896 5896 5896 5897 5897 5898 5899 5899 5899 5900 5900 5900 5900 5900 5900 5900 5900 5900 5900 5900 5900 5900 5899 5899 5899 5898 5898 5898 5898
5891 5891 5892 5892 5893 5893 5893 5894 5894 5895 5895 5895 5896 5896 5896 5896 5897 5897 5897 5898 5898 5899 5899 5899 5899 5899 5899 5899 5899 5899 5899 5899 5899 5899 5898 5898 5897 5897 5897 5896 5896 5896 5895
5891 5891 5892 5892 5893 5893 5893 5894 5894 5895 5895 5895 5896 5896 5896 5896 5896 5896 5897 5897 5897 5898 5898 5898 5898 5898 5898 5898 5898 5898 5898 5897 5897 5897 5896 5896 5895 5895 5894 5894 5893 5893 5893
5891 5891 5892 5892 5892 5893 5893 5893 5894 5894 5894 5895 5895 5895 5895 5895 5895 5895 5896 5896 5896 5896 5896 5896 5896 5896 5896 5896 5896 5896 5896 5895 5895 5894 5894 5893 5892 5892 5892 5891 5891 5890 5890
5891 5891 5891 5891 5892 5892 5892 5893 5893 5893 5893 5894 5894 5894 5894 5894 5894 5894 5894 5894 5894 5895 5895 5895 5895 5895 5894 5894 5894 5894 5893 5893 5892 5892 5891 5890 5890 5889 5889 5888 5887 5887 5887
5890 5890 5891 5891 5891 5891 5891 5891 5892 5892 5892 5892 5892 5893 5893 5893 5892 5892 5892 5893 5893 5893 5893 5893 5892 5892 5892 5892 5891 5891 5891 5890 5889 5889 5888 5887 5886 5886 5885 5884 5884 5883 5883
5889 5889 5889 5889 5889 5889 5890 5890 5890 5890 5890 5890 5891 5891 5891 5891 5890 5890 5890 5890 5890 5890 5890 5890 5890 5890 5889 5889 5888 5888 5887 5887 5886 5885 5884 5883 5883 5882 5881 5880 5880 5879 5878
5888 5888 5888 5888 5888 5888 5888 5888 5888 5888 5888 5888 5888 5888 5888 5888 5887 5887 5887 5887 5887 5887 5887 5887 5886 5886 5885 5885 5884 5884 5883 5883 5882 5881 5880 5879 5878 5878 5877 5876 5875 5874 5873
5887 5887 5887 5887 5886 5886 5886 5886 5886 5886 5885 5885 5885 5885 5885 5884 5884 5884 5884 5884 5884 5884 5883 5883 5883 5882 5881 5881 5880 5880 5879 5878 5877 5877 5876 5875 5874 5873 5872 5871 5870 5869 5868
5886 5885 5885 5885 5884 5884 5884 5884 5884 5883 5883 5882 5882 5882 5881 5881 5881 5881 5880 5880 5880 5879 5879 5879 5878 5877 5877 5876 5876 5875 5874 5873 5872 5872 5871 5870 5869 5868 5867 5866 5865 5864 5862
5884 5884 5883 5883 5882 5882 5881 5881 5881 5880 5879 5879 5878 5878 5878 5877 5877 5876 5876 5875 5875 5875 5874 5874 5873 5872 5872 5871 5871 5870 5869 5868 5867 5866 5865 5864 5863 5862 5861 5860 5859 5858 5856
5882 5882 5881 5880 5880 5879 5879 5878 5877 5877 5876 5875 5874 5874 5874 5873 5873 5872 5872 5871 5871 5870 5870 5869 5868 5868 5867 5866 5865 5864 5863 5862 5861 5860 5859 5858 5857 5856 5855 5854 5852 5851 5850
5881 5880 5879 5878 5877 5877 5876 5875 5874 5873 5872 5871 5870 5869 5869 5868 5868 5868 5867 5867 5866 5865 5864 5864 5863 5862 5861 5860 5859 5858 5857 5856 5855 5854 5853 5852 5851 5850 5848 5847 5846 5845 5843
5878 5877 5877 5876 5875 5874 5872 5871 5870 5869 5868 5867 5866 5865 5864 5863 5863 5862 5862 5861 5861 5860 5859 5858 5857 5855 5855 5854 5853 5852 5851 5850 5849 5848 5847 5845 5844 5843 5841 5840 5839 5838 5837
5876 5875 5874 5873 5871 5870 5869 5868 5866 5865 5864 5863 5861 5860 5859 5858 5857 5857 5856 5855 5855 5854 5853 5852 5851 5849 5848 5848 5847 5846 5844 5843 5842 5841 5840 5838 5837 5835 5834 5833 5831 5830 5829
5874 5872 5871 5869 5868 5867 5865 5864 5862 5861 5859 5858 5856 5855 5854 5853 5852 5851 5850 5850 5849 5848 5847 5846 5844 5843 5842 5842 5841 5839 5838 5837 5835 5834 5832 5831 5829 5828 5826 5825 5823 5822 5821
5871 5869 5867 5866 5864 5863 5862 5860 5858 5857 5855 5853 5852 5850 5849 5848 5847 5846 5845 5844 5843 5842 5841 5839 5838 5837 5836 5835 5834 5832 5831 5830 5828 5826 5825 5823 5822 5820 5818 5817 5815 5814 5812
5868 5866 5864 5862 5861 5859 5858 5856 5854 5852 5851 5849 5847 5845 5844 5843 5841 5840 5839 5838 5837 5836 5834 5833 5832 5831 5830 5828 5827 5825 5824 5822 5820 5819 5817 5815 5813 5812 5810 5808 5807 5805 5803
5865 5863 5861 5859 5857 5855 5854 5852 5850 5848 5846 5844 5842 5840 5839 5837 5836 5834 5833 5832 5830 5829 5828 5827 5826 5824 5823 5821 5819 5818 5816 5815 5813 5811 5809 5807 5805 5803 5801 5799 5798 5796 5794
5862 5860 5857 5855 5853 5851 5849 5847 5846 5843 5841 5839 5837 5835 5834 5832 5830 5829 5827 5826 5824 5823 5821 5819 5818 5817 5815 5813 5812 5810 5808 5806 5804 5802 5801 5799 5796 5794 5792 5790 5788 5786 5784
5859 5856 5853 5851 5849 5847 5845 5843 5841 5839 5836 5834 5832 5830 5828 5827 5825 5823 5821 5819 5818 5816 5814 5813 5810 5809 5807 5805 5803 5801 5800 5798 5796 5794 5791 5789 5787 5785 5783 5781 5779 5777 5775
5855 5852 5849 5846 5843 5841 5839 5837 5835 5833 5831 5829 5827 5824 5822 5820 5818 5817 5815 5813 5811 5809 5807 5805 5803 5801 5799 5797 5795 5793 5791 5789 5787 5785 5782 5780 5778 5775 5773 5771 5768 5766 5764
5850 5847 5844 5841 5838 5836 5834 5832 5830 5828 5826 5824 5821 5819 5816 5814 5812 5810 5808 5806 5804 5802 5800 5798 5796 5794 5791 5789 5787 5785 5782 5780 5777 5775 5773 5770 5768 5765 5763 5761 5758 5756 5754
5845 5841 5838 5836 5833 5831 5829 5827 5825 5823 5820 5818 5815 5813 5810 5808 5805 5803 5801 5799 5797 5794 5792 5790 5787 5785 5783 5780 5778 5776 5773 5771 5768 5766 5763 5760 5758 5755 5752 5750 5748 5745 5743
5839 5836 5833 5830 5828 5826 5823 5821 5819 5817 5814 5812 5809 5806 5804 5801 5799 5796 5794 5791 5789 5787 5784 5782 5780 5777 5775 5772 5769 5767 5764 5762 5759 5756 5753 5750 5748 5745 5742 5740 5737 5734 5732